Zurück zum Katalog

LANDSAT 8

AktivWissenschaftSSO
NORAD 39084·PAYLOAD·🇺🇸 United States

Gestartet Feb 11, 2013 von Vandenberg Space Force Base

Loading…

Nächste Überflüge (nächste 24 Stunden)

TLE

AktuellSource: Space-Track

Epoche: Sep 14, 2026, 13:41 UTC

1 39084U 13008A   26257.57026895  .00000211  00000-0  56912-4 0  9991
2 39084  98.2222 326.6065 0001317  94.9265 265.2084 14.57099358710912

Verfolge LANDSAT 8 in Echtzeit mit AllMySat

Download on the App Store